Regional Weather Roundup
Issued by NWS Upton, NY

Current Version | Previous Version | Text Only | Print | Product List | Glossary On
Versions: 1 2 3 4 5 6 7 8 9 10 11 12 13 14 15 16 17 18 19 20 21 22 23 24 25 26 27 28 29 30 31 32 33 34 35 36 37 38 39 40 41 42 43 44 45 46 47 48 49 50
000 ASUS41 KOKX 041705 RWROKX REGIONAL WEATHER ROUNDUP NATIONAL WEATHER SERVICE NEW YORK NY 1200 PM EST WED MAR 04 2015 NOTE: "FAIR" INDICATES FEW OR NO CLOUDS BELOW 12,000 FEET WITH NO SIGNIFICANT WEATHER AND/OR OBSTRUCTIONS TO VISIBILITY. NYZ071-072-176-178-NJZ106-104-041800- NEW YORK CITY METRO AREA CITY SKY/WX TMP DP RH WIND PRES REMARKS CENTRAL PARK CLOUDY 43 35 73 VRB5 29.88F HAZE LAGUARDIA APRT CLOUDY 45 36 70 SW9 29.86F KENNEDY INTL CLOUDY 37 34 89 SW13 29.89F FOG WCI 29 NEWARK/LIBERTY CLOUDY 39 36 89 SW7 29.87F FOG WCI 34 BRNX BOT. GARD N/A 43 36 75 S2 29.86F TETERBORO LGT RAIN 44 36 73 W6 29.84F $$ NYZ177-179-078>081-041800- LONG ISLAND NEW YORK CITY SKY/WX TMP DP RH WIND PRES REMARKS FARMINGDALE CLOUDY 40 37 89 W7 29.86F FOG ISLIP CLOUDY 39 36 89 SW5 29.84F FOG SHIRLEY CLOUDY 38 36 92 W7 29.87S FOG WCI 33 WESTHAMPTON CLOUDY 38 34 85 SW10 29.87F FOG WCI 31 MONTAUK POINT N/A 40 36 86 VRB3 29.85R $$ NYZ052-065-067-041800- HUDSON VALLEY CITY SKY/WX TMP DP RH WIND PRES REMARKS WHITE PLAINS LGT RAIN 41 36 82 W6 29.83F HAZE NEWBURGH CLOUDY 37 36 93 W8 29.85S WCI 31 MONTGOMERY CLOUDY 40 35 83 SW3 29.83F POUGHKEEPSIE CLOUDY 41 34 76 SW6 29.82F ALBANY CLOUDY 37 27 67 NW12G21 29.85S WCI 29 $$ NJZ001-105-106-008-010-013-015-019>022-104-041800- NEW JERSEY CITY SKY/WX TMP DP RH WIND PRES REMARKS NEWARK/LIBERTY CLOUDY 39 36 89 SW7 29.87F FOG WCI 34 TETERBORO LGT RAIN 44 36 73 W6 29.84F CALDWELL CLOUDY 44 35 70 VRB6 29.85F MORRISTOWN CLOUDY N/A N/A N/A W8 29.87F FOG SOMERVILLE CLOUDY 41 37 86 S5 29.85F FOG SUSSEX CLOUDY 38 34 85 W5 29.84F FOG WCI 34 ANDOVER N/A 39 37 92 SW5 29.84F TRENTON CLOUDY 40 37 89 SW5 29.88F FOG MILLVILLE CLOUDY 45 42 89 SW5 29.91S ATLANTIC CITY LGT RAIN 45 42 89 SW6 29.90F FOG WRIGHTSTOWN PTSUNNY 42 42 99 W6 29.88R TOMS RIVER CLOUDY 45 43 93 CALM 29.88F BELMAR CLOUDY 41 36 81 W7 29.88F $$ PAZ047>061-062-071-041800- EASTERN PENNSYLVANIA CITY SKY/WX TMP DP RH WIND PRES REMARKS PHILADELPHIA CLOUDY 41 38 89 S7 29.91S FOG ALLENTOWN LGT RAIN 37 36 93 SW6 29.88F FOG WCI 33 SCRANTON CLOUDY 39 33 79 SW12 29.86S HAZE WCI 32 $$ CTZ002-004>006-009-010-012-RIZ004-006-007-MAZ004-011-015-041800- SOUTHERN NEW ENGLAND IN CT CITY SKY/WX TMP DP RH WIND PRES REMARKS BRADLEY INTL CLOUDY 43 32 65 W7 29.81R HARTFORD CLOUDY 41 34 76 SW8 29.84R DANBURY CLOUDY 40 33 76 W8 29.86S WCI 34 WTRBRY/OXFORD NOT AVBL BRIDGEPORT CLOUDY 37 35 92 SW10 29.85S FOG WCI 30 MERIDEN CLOUDY 42 35 76 VRB5 29.83S NEW HAVEN CLOUDY 38 35 89 SW8 29.84S FOG WCI 32 CHESTER FAIR 39 36 87 SW5 29.83R GROTON CLOUDY 37 35 92 SW3 29.84S FOG WILLIMANTIC CLOUDY 42 33 70 W6 29.82R IN RI CITY SKY/WX TMP DP RH WIND PRES REMARKS PROVIDENCE CLOUDY 41 34 76 W6 29.82R BLOCK ISLAND PTSUNNY 37 34 87 SW14 29.83S WCI 29 WESTERLY CLOUDY 36 34 92 SW5 29.85R FOG WCI 32 IN MA CITY SKY/WX TMP DP RH WIND PRES REMARKS BOSTON CLOUDY 41 31 67 W14 29.78R WORCESTER CLOUDY 38 29 70 W20G28 29.75R WCI 28 WESTFIELD CLOUDY 41 30 65 VRB6 29.81R PROVINCETOWN CLOUDY 37 34 87 SW12 29.80S WCI 30 NANTUCKET CLOUDY 37 34 89 SW13 29.83F FOG WCI 29 $$ ANZ330-335-338-340-345-350-353-355-041800- COASTAL MARINE OBSERVATIONS STATION/POSITION TIME SKY/WX TEMP WIND PRES VSBY WAVE AIR SEA DIR/SP/G HT/PER (UTC) (F) (DEG/KT/KT) (MB) (MI) (FT/S) NY HARB ENTRANCE 1700 38 38 230/ 6/ 8 1011.9 6/10 4S FIRE IS 1700 32 N/A 7/ 9 20S FIRE ISLAND 1600 36 1012.6 7/ 9 23SW MTP 1700 N/A 8/ 9 HUDSON CANYON NOT AVBL EXECUTION ROCKS NOT AVBL WESTERN LI SOUND NOT AVBL CENTRAL LI SOUND NOT AVBL EASTERN LI SOUND NOT AVBL ROBBINS REEF 1600 39 250/ 8/ 9 1010.6 $$ >>>>>>>>>>>>>>>>>>>>>>>>>>>> KEY <<<<<<<<<<<<<<<<<<<<<<<<<<< > < > SKY/WX - SKY CONDITION/PRESENT WEATHER < > TMP - TEMPERATURE IN FAHRENHEIT < > DP - DEWPOINT IN FAHRENHEIT < > RH - RELATIVE HUMIDITY IN PERCENT < > WIND - DIRECTION AND SPEED IN MPH < > PRES - MEAN SEA LEVEL PRESSURE IN INCHES OF HG < > WCI - WIND CHILL INDEX < > VSB - VISIBILITY IN MILES < > HX - HEAT INDEX < > TC - TEMPERATURE IN CELSIUS < > VRB - VARIABLE WIND DIRECTION < > < >>>>>>>>>>>>>>>>>>>>>>>>>>>> KEY <<<<<<<<<<<<<<<<<<<<<<<<<<<

USA.gov is the U.S. government's official web portal to all federal, state and local government web resources and services.